Regional Weather Roundup
Issued by NWS

Home | Current Version | Previous Version | Graphics & Text | Print | Product List | Glossary On
Versions: 1 2 3 4 5 6 7 8 9 10 11 12 13 14 15 16 17 18 19 20 21 22 23 24 25 26 27 28 29 30 31 32 33 34 35 36 37 38 39 40 41 42 43 44 45 46 47 48 49 50
291
ASUS44 KJAN 210503
RWRMS

MISSISSIPPI HOURLY WEATHER ROUNDUP
NATIONAL WEATHER SERVICE JACKSON MS
1200 AM CDT MON APR 21 2014

NOTE: "FAIR: INDICATES FEW OR NO CLOUDS BELOW 12,000 FEET WITH NO
SIGNIFICANT WEATHER AND/OR OBSTRUCTIONS TO VISIBILITY.

MSZ001>002-007>008-010>013-018>021-025>028-034>036-210600-
NORTHWEST MISSISSIPPI

CITY           SKY/WX    TMP DP  RH WIND       PRES   REMARKS
CLARKSDALE       N/A     64  54  68 CALM      30.11F
CLEVELAND      FAIR      68  52  56 SE5       30.09F
GREENWOOD      MOCLDY    59  52  77 N5        30.12S
GREENVILLE     PTCLDY    63  53  70 E6        30.09F
GRENADA        FAIR      54  52  94 CALM      30.13S
OLIVE BRANCH   CLEAR     63  50  63 CALM      30.12R
OXFORD         FAIR      55  48  76 CALM      30.13F
TUNICA         PTCLDY    63  50  63 SE6       30.11S
$$

MSZ003>006-009-014>017-022>024-029>033-037>039-210600-
NORTHEAST MISSISSIPPI

CITY           SKY/WX    TMP DP  RH WIND       PRES   REMARKS
BELMONT        FAIR      54  49  83 CALM      30.13S
COLUMBUS AFB   CLEAR     55  53  94 CALM      30.13S
CORINTH        FAIR      55  50  82 CALM      30.12S
GOLDN TRIANGLE CLEAR     57  50  77 CALM      30.15S
STARKVILLE     FAIR      52  50  93 CALM      30.12F
TUPELO         CLEAR     57  51  80 CALM      30.11F
$$

MSZ040-058-210600-
CENTRAL MISSISSIPPI

CITY           SKY/WX    TMP DP  RH WIND       PRES   REMARKS
JACKSON INTL   PTCLDY    62  52  69 SE3       30.12F
JACKSON HAWKNS PTCLDY    63  51  65 CALM      30.12F
MERIDIAN KEY   CLEAR     55  52  89 CALM      30.14S
MERIDIAN NAS   PTCLDY    56  52  86 CALM      30.13F
RAYMOND        FAIR      57  52  82 CALM      30.11F
VICKSBURG      CLEAR     63  57  81 CALM      30.10S
$$

MSZ059>079-210600-
SOUTH MISSISSIPPI

CITY           SKY/WX    TMP DP  RH WIND       PRES   REMARKS
BROOKHAVEN     FAIR      57  54  88 CALM      30.14S
COLUMBIA       FAIR      61  57  88 MISG      30.13S
HATTIESBURG    CLEAR     61  57  87 CALM      30.15S
MCCOMB         CLEAR     61  54  77 SE7       30.13R
NATCHEZ        CLEAR     61  54  77 CALM      30.10S
PINE BELT      CLEAR     59  54  82 S3        30.15S
$$

MSZ080>082-210600-
COASTAL MISSISSIPPI

CITY           SKY/WX    TMP DP  RH WIND       PRES   REMARKS
BILOXI         CLEAR     64  59  85 S8        30.15S
PASCAGOULA     CLEAR     56  56 100 CALM      30.15S
GULFPORT       CLEAR     65  58  78 S6        30.15S
$$



USA.gov is the U.S. government's official web portal to all federal, state and local government web resources and services.